St. Paul Lake Elmo, MN

8:58 AM CDT on March 23, 2017 (GMT -0500)
St. Paul Lake Elmo

Weather History for K21D - August, 2013

Change the Weather History Date:

Saturday, August 31, 2013

  Actual Average (KSTP) Record (KSTP)
Temperature  
Mean Temperature 72 °F -  
Max Temperature 86 °F 78 °F 87 °F (2008)
Min Temperature 59 °F 57 °F 51 °F (2003)
Cooling Degree Days 8    
Growing Degree Days 22 (Base 50)    
Moisture  
Dew Point 64 °F    
Average Humidity 76    
Maximum Humidity 100    
Minimum Humidity 51    
Precipitation  
Precipitation 0.00 in - - ()
Sea Level Pressure  
Sea Level Pressure 29.85 in    
Wind  
Wind Speed 4 mph (South)    
Max Wind Speed 26 mph    
Max Gust Speed 36 mph    
Visibility 10 miles    
Events Rain , Thunderstorm    
Averages and records for this station are not official NWS values.
T = Trace of Precipitation, MM = Missing Value Source: NWS Daily Summary

Daily Weather History Graph

Daily Weather History Graph

Search for Another Location

Airport or City:

Trip Planner

Search our weather history database for the weather conditions in past years. The results will help you decide how hot, cold, wet, or windy it might be!

Date:

Astronomy

Aug. 31, 2013 Rise Set
Actual Time 6:32 AM CDT 7:49 PM CDT
Civil Twilight 6:02 AM CDT 8:20 PM CDT
Nautical Twilight 5:25 AM CDT 8:56 PM CDT
Astronomical Twilight 4:46 AM CDT 9:35 PM CDT
Moon 1:54 AM CDT (8/31) 4:55 PM CDT (8/31)
Length of Visible Light 14h 17m
Length of Day
13h 17m
Waning Crescent, 21% of the Moon is Illuminated
Aug 31
Waning Crescent
Sep 5
New
Sep 12
First Quarter
Sep 19
Full
Sep 26
Last Quarter

Hourly Weather History & Observations

Time (CDT) Temp. Heat Index Dew Point Humidity Pressure Visibility Wind Dir Wind Speed Gust Speed Precip Events Conditions
12:12 AM 68.0 °F - 62.6 °F 83% 29.91 in 10.0 mi ENE 6.9 mph - N/A   Clear
12:32 AM 68.0 °F - 62.6 °F 83% 29.91 in 10.0 mi ENE 6.9 mph - N/A   Clear
12:52 AM 68.0 °F - 62.6 °F 83% 29.91 in 10.0 mi East 5.8 mph - N/A   Clear
1:12 AM 68.0 °F - 62.6 °F 83% 29.92 in 10.0 mi ENE 3.5 mph - N/A   Clear
1:32 AM 66.2 °F - 62.6 °F 88% 29.92 in 10.0 mi ENE 4.6 mph - N/A   Clear
1:52 AM 64.4 °F - 62.6 °F 94% 29.91 in 10.0 mi ENE 3.5 mph - N/A   Clear
2:12 AM 64.4 °F - 62.6 °F 94% 29.92 in 10.0 mi Calm Calm - N/A   Clear
2:32 AM 62.6 °F - 60.8 °F 94% 29.91 in 10.0 mi ENE 3.5 mph - N/A   Clear
2:52 AM 62.6 °F - 60.8 °F 94% 29.91 in 10.0 mi Calm Calm - N/A   Clear
3:12 AM 62.6 °F - 60.8 °F 94% 29.90 in 10.0 mi Calm Calm - N/A   Clear
3:32 AM 62.6 °F - 60.8 °F 94% 29.91 in 10.0 mi Calm Calm - N/A   Clear
3:52 AM 62.6 °F - 60.8 °F 94% 29.90 in 10.0 mi ENE 4.6 mph - N/A   Clear
4:12 AM 62.6 °F - 60.8 °F 94% 29.90 in 10.0 mi Calm Calm - N/A   Clear
4:32 AM 62.6 °F - 60.8 °F 94% 29.90 in 10.0 mi Calm Calm - N/A   Clear
4:52 AM 62.6 °F - 60.8 °F 94% 29.91 in 10.0 mi Calm Calm - N/A   Clear
5:12 AM 60.8 °F - 60.8 °F 100% 29.91 in 10.0 mi Calm Calm - N/A   Clear
5:32 AM 60.8 °F - 60.8 °F 100% 29.90 in 10.0 mi Calm Calm - N/A   Clear
5:52 AM 60.8 °F - 60.8 °F 100% 29.90 in 10.0 mi Calm Calm - N/A   Clear
6:12 AM 60.8 °F - 60.8 °F 100% 29.90 in 10.0 mi Calm Calm - N/A   Clear
6:32 AM 59.0 °F - 59.0 °F 100% 29.90 in 10.0 mi Calm Calm - N/A   Clear
6:52 AM 59.0 °F - 59.0 °F 100% 29.89 in 7.0 mi Calm Calm - N/A   Clear
7:12 AM 59.0 °F - 59.0 °F 100% 29.89 in 10.0 mi Calm Calm - N/A   Clear
7:32 AM 62.6 °F - 60.8 °F 94% 29.90 in 10.0 mi Calm Calm - N/A   Clear
7:52 AM 64.4 °F - 62.6 °F 94% 29.89 in 10.0 mi Calm Calm - N/A   Clear
8:12 AM 64.4 °F - 62.6 °F 94% 29.89 in 10.0 mi Calm Calm - N/A   Clear
8:32 AM 66.2 °F - 62.6 °F 88% 29.89 in 10.0 mi SE 3.5 mph - N/A   Clear
8:52 AM 68.0 °F - 62.6 °F 83% 29.88 in 10.0 mi SSE 4.6 mph - N/A   Clear
9:12 AM 69.8 °F - 64.4 °F 83% 29.88 in 10.0 mi SE 5.8 mph - N/A   Clear
9:31 AM 71.6 °F - 64.4 °F 78% 29.88 in 10.0 mi SE 4.6 mph - N/A   Clear
9:52 AM 71.6 °F - 64.4 °F 78% 29.88 in 10.0 mi South 6.9 mph - N/A   Clear
10:12 AM 73.4 °F - 64.4 °F 73% 29.87 in 10.0 mi South 4.6 mph - N/A   Clear
10:31 AM 73.4 °F - 64.4 °F 73% 29.87 in 10.0 mi SE 5.8 mph - N/A   Clear
10:52 AM 77.0 °F - 66.2 °F 69% 29.87 in 10.0 mi South 5.8 mph - N/A   Clear
11:12 AM 75.2 °F - 66.2 °F 73% 29.87 in 10.0 mi Calm Calm - N/A   Clear
11:32 AM 77.0 °F - 66.2 °F 69% 29.86 in 10.0 mi SE 3.5 mph - N/A   Clear
11:52 AM 78.8 °F - 66.2 °F 65% 29.86 in 10.0 mi SSW 3.5 mph - N/A   Clear
12:12 PM 78.8 °F - 64.4 °F 61% 29.86 in 10.0 mi SE 3.5 mph - N/A   Clear
12:32 PM 80.6 °F 82.7 °F 66.2 °F 61% 29.86 in 10.0 mi SW 3.5 mph - N/A   Clear
12:52 PM 80.6 °F 82.7 °F 66.2 °F 61% 29.86 in 10.0 mi SSW 4.6 mph - N/A   Scattered Clouds
1:12 PM 82.4 °F 84.6 °F 66.2 °F 58% 29.85 in 10.0 mi SSW 8.1 mph - N/A   Scattered Clouds
1:32 PM 80.6 °F 82.7 °F 66.2 °F 61% 29.85 in 10.0 mi SSW 5.8 mph - N/A   Clear
1:52 PM 82.4 °F 83.9 °F 64.4 °F 54% 29.85 in 10.0 mi SSE 5.8 mph - N/A   Clear
2:12 PM 82.4 °F 83.9 °F 64.4 °F 54% 29.84 in 10.0 mi SSW 6.9 mph - N/A   Clear
2:32 PM 84.2 °F 86.6 °F 66.2 °F 55% 29.84 in 10.0 mi SSW 4.6 mph - N/A   Clear
2:52 PM 84.2 °F 86.6 °F 66.2 °F 55% 29.83 in 10.0 mi WSW 6.9 mph - N/A   Clear
3:12 PM 84.2 °F 85.6 °F 64.4 °F 51% 29.82 in 10.0 mi SW 8.1 mph - N/A   Clear
3:32 PM 86.0 °F 88.2 °F 66.2 °F 51% 29.82 in 10.0 mi SW 5.8 mph - N/A   Clear
3:52 PM 86.0 °F 88.2 °F 66.2 °F 51% 29.81 in 10.0 mi South 8.1 mph - N/A   Clear
4:12 PM 86.0 °F 89.4 °F 68.0 °F 55% 29.81 in 10.0 mi South 9.2 mph - N/A   Clear
4:32 PM 86.0 °F 89.4 °F 68.0 °F 55% 29.81 in 10.0 mi SSW 8.1 mph - N/A   Clear
4:52 PM 86.0 °F 89.4 °F 68.0 °F 55% 29.80 in 10.0 mi SW 10.4 mph - N/A   Clear
5:12 PM 86.0 °F 88.2 °F 66.2 °F 51% 29.77 in 10.0 mi South 9.2 mph - N/A   Clear
5:32 PM 86.0 °F 88.2 °F 66.2 °F 51% 29.76 in 10.0 mi SSW 9.2 mph - N/A   Clear
5:52 PM 82.4 °F 84.6 °F 66.2 °F 58% 29.78 in 10.0 mi South 9.2 mph - N/A   Clear
6:12 PM 82.4 °F 84.6 °F 66.2 °F 58% 29.79 in 10.0 mi SSW 5.8 mph - N/A   Clear
6:32 PM 80.6 °F 83.2 °F 68.0 °F 65% 29.81 in 10.0 mi South 3.5 mph - N/A   Clear
6:52 PM 78.8 °F - 68.0 °F 69% 29.80 in 10.0 mi SSE 4.6 mph - N/A   Clear
7:12 PM 78.8 °F - 68.0 °F 69% 29.82 in 10.0 mi South 3.5 mph - N/A   Clear
7:31 PM 78.8 °F - 68.0 °F 69% 29.83 in 10.0 mi WSW 3.5 mph - N/A   Clear
7:52 PM 77.0 °F - 68.0 °F 74% 29.86 in 10.0 mi West 5.8 mph - N/A   Scattered Clouds
8:12 PM 78.8 °F - 69.8 °F 74% 29.86 in 10.0 mi West 3.5 mph - N/A Thunderstorm Thunderstorm
8:31 PM 78.8 °F - 64.4 °F 61% 29.88 in 10.0 mi WNW 26.5 mph 35.7 mph N/A   Light Drizzle
8:52 PM 73.4 °F - 62.6 °F 69% 29.88 in 10.0 mi WNW 13.8 mph 21.9 mph N/A Rain Light Rain
9:12 PM 69.8 °F - 62.6 °F 78% 29.86 in 10.0 mi WNW 12.7 mph 19.6 mph N/A Rain Light Rain
9:31 PM 69.8 °F - 62.6 °F 78% 29.78 in 10.0 mi SSW 10.4 mph - N/A Rain Light Rain
9:52 PM 69.8 °F - 62.6 °F 78% 29.77 in 10.0 mi SSW 6.9 mph - N/A   Clear
10:12 PM 69.8 °F - 62.6 °F 78% 29.77 in 10.0 mi South 8.1 mph - N/A   Clear
10:32 PM 68.0 °F - 62.6 °F 83% 29.75 in 10.0 mi South 8.1 mph - N/A   Clear
10:52 PM 68.0 °F - 62.6 °F 83% 29.75 in 10.0 mi South 5.8 mph - N/A   Clear
11:12 PM 69.8 °F - 62.6 °F 78% 29.74 in 10.0 mi SSE 4.6 mph - N/A   Clear
11:32 PM 68.0 °F - 62.6 °F 83% 29.75 in 10.0 mi West 3.5 mph - N/A   Clear
11:52 PM 68.0 °F - 64.4 °F 88% 29.75 in 10.0 mi Calm Calm - N/A   Clear